Home > Weather > Mexico City > Past weeks

Flag for Mexico Past Weather in Mexico City, Ciudad de México, Mexico — Yesterday and Last 2 Weeks

Now
61 °F

More clouds than sun.


Feels Like: 61 °F
Forecast: 58 / 69 °F
Wind: 3 mph from East

Location: Mexico City / Licenci

Current Time: Aug 24, 2016 at 11:18:47 AM

Latest Report: Aug 24, 2016 at 9:50 AM


Visibility: 5 mi

Pressure: 30.07 "Hg (23.07 "Hg at 2241m altitude)

Humidity: 77%

Dew Point: 54 °F

Location of Mexico CityLocation

Past Weather in Mexico City — Graph

°F

Mexico City Temperature Yesterday

Maximum temperature yesterday: 73 °F (at 2:45 PM)
Minimum temperature yesterday: 55 °F (at 5:54 AM)
Average temperature yesterday: 63 °F

High & Low Weather Summary for the Past Weeks

 TemperatureHumidityPressure
High77 °F (Aug 11, 3:49 PM)88% (Aug 9, 9:21 AM)30.48 "Hg (Aug 9, 9:21 AM)
Low55 °F (Aug 15, 7:25 AM)26% (Aug 14, 5:48 PM)29.61 "Hg (Aug 14, 3:46 PM)
Average65 °F62%30.18 "Hg
* Reported Aug 9 9:21 AM — Aug 24 9:50 AM, Mexico City, Weather by CustomWeather, © 2016

Note: Actual official high and low records may vary slightly from our data, if they occured in-between our weather recording intervals... More about our weather records

Advertising

Mexico City Weather History for the Previous 24 Hours

Scroll right to see more
 ConditionsComfort  
Time TempWeatherWind HumidityBarometerVisibility
9:50 AM
Wed, Aug 24
61 °FMore clouds than sun.3 mph77%30.07 "Hg5 mi
9:27 AM59 °FMore clouds than sun.5 mph82%30.47 "Hg5 mi
8:46 AM59 °FOvercast.6 mph82%30.46 "Hg6 mi
8:22 AM59 °FOvercast.7 mph82%30.45 "Hg6 mi
7:45 AM57 °FMostly cloudy.7 mph88%30.44 "Hg6 mi
6:46 AM59 °FMostly cloudy.5 mph82%29.99 "Hg7 mi
5:49 AM57 °FMostly cloudy.5 mph88%30.42 "Hg12 mi
4:50 AM57 °FMostly cloudy.No wind82%30.43 "Hg10 mi
3:49 AM59 °FMostly cloudy.No wind82%29.87 "Hg10 mi
2:55 AM59 °FPartly cloudy.5 mph88%30.44 "Hg8 mi
1:55 AM59 °FPartly cloudy.3 mph88%30.44 "Hg7 mi
8:50 PM
Tue, Aug 23
59 °FThunderstorms. Cloudy.10 mph88%30.40 "Hg5 mi
8:02 PM61 °FThunderstorms. Cloudy.10 mph83%30.38 "Hg6 mi
6:01 PM66 °FThunderstorms. Broken clouds.17 mph60%30.34 "Hg6 mi
5:58 PM70 °FThunderstorms. Broken clouds.17 mph53%30.34 "Hg6 mi
4:47 PM73 °FCloudy.12 mph38%30.32 "Hg5 mi
3:45 PM73 °FMostly cloudy.9 mph38%29.81 "Hg6 mi
2:45 PM73 °FPartly sunny.3 mph36%30.38 "Hg5 mi
1:47 PM72 °FScattered clouds.6 mph41%30.41 "Hg5 mi
12:48 PM68 °FScattered clouds.6 mph46%29.90 "Hg5 mi
11:49 AM66 °FScattered clouds.3 mph52%30.45 "Hg5 mi
Weather by CustomWeather, © 2016

See weather overviewHow to use our weather pages